Find Starlink 30799

NORAD ID: 58121 Int'l Des: 2023-162 Owner: SPXS Country: US Constellation: starlink operational
LEOCIRCULAR

Current View

Loading 3D Globe...

About Starlink 30799

Starlink 30799 (NORAD 58121) is a starlink constellation satellite (v2 mini) launched Oct 22, 2023 by SPXS of US. It operates in LEO, CIRCULAR orbit with a mass of 730.00 kg.

Upcoming Passes

Passes for default location (London). Set your location on the main map for personalized predictions.

Altitude History

Loading altitude history...

Two-Line Element Set

1 58121U 23162D 26252.13278229 .00000530 00000-0 28775-4 0 9993
2 58121 43.0005 176.3804 0001198 268.0833 91.9881 15.27579107160365
Epoch: Sep 9, 2026 • Age: 11 hours

Current Status

Altitude 495.5 km
Apogee / Perigee N/A
Velocity 7.62 km/s
Sub-Earth Point -42.89°S, 103.98°W
Launch Date Oct 22, 2023
Age 2.8 years
Type internet

Technical Details

Classification Payload
Mass 730.00 kg
Dry Mass 700.00 kg
Total Mass 730.00 kg
Length 0.30 m
Diameter 4.10 m
Span 29.00 m
Shape Box + pan
Manufacturer SPXS
Bus Type Starlink V2M
Phase Status In Orbit
Owner/State SPXS/US

Most Searched